Home   Weather   Surrey   Past weeks

Flag for Canada Past Weather in Surrey, British Columbia, Canada — Yesterday and Last 2 Weeks

Now
48 °F

Cool.


Feels Like: 48 °F
Forecast: 47 / 69 °F
Wind: No wind

Location: P. Meadows Coastal Station

Current Time: May 25, 2017 at 3:52:12 am

Latest Report: May 25, 2017 at 3:00 am


Visibility: N/A

Pressure: 29.92 "Hg

Humidity: 90%

Dew Point: 45 °F

Location of SurreyLocation

Past Weather in Surrey — Graph

°F

Surrey Temperature Yesterday

Maximum temperature yesterday: 63 °F (at 5:00 pm)
Minimum temperature yesterday: 47 °F (at 6:00 am)
Average temperature yesterday: 56 °F

High & Low Weather Summary for the Past Weeks

 TemperatureHumidityPressure
High82 °F (May 22, 6:00 pm)100% (May 13, 4:00 am)30.27 "Hg (May 13, 4:00 am)
Low42 °F (May 13, 5:00 am)27% (May 22, 6:00 pm)29.55 "Hg (May 16, 6:00 am)
Average56 °F72%30.00 "Hg
* Reported May 10 2:00 am — May 25 2:00 am, Surrey. Weather by CustomWeather, © 2017

Note: Actual official high and low records may vary slightly from our data, if they occured in-between our weather recording intervals... More about our weather records

Advertising

Surrey Weather History for the Previous 24 Hours

Scroll right to see more
 ConditionsComfort  
Time TempWeatherWind HumidityBarometerVisibility
2:00 am
Thu, May 25
49 °FCool.No wind91%29.92 "HgN/A
1:00 am48 °FCool.No wind87%29.93 "HgN/A
12:00 am51 °FCool.No wind87%29.93 "HgN/A
11:00 pm
Wed, May 24
53 °FCool.1 mph77%29.94 "HgN/A
10:00 pm54 °FCool.2 mph72%29.94 "HgN/A
9:00 pm57 °FRefreshingly cool.3 mph58%29.93 "HgN/A
8:00 pm60 °FRefreshingly cool.6 mph56%29.93 "HgN/A
7:00 pm62 °FRefreshingly cool.7 mph51%29.93 "HgN/A
6:00 pm62 °FMild.7 mph47%29.93 "HgN/A
5:00 pm63 °FMild.3 mph49%29.94 "HgN/A
4:00 pm62 °FRefreshingly cool.6 mph52%29.94 "HgN/A
3:00 pm61 °FRefreshingly cool.2 mph51%29.95 "HgN/A
2:00 pm61 °FRefreshingly cool.6 mph48%29.95 "HgN/A
1:00 pm60 °FRefreshingly cool.5 mph50%29.96 "HgN/A
12:00 pm59 °FRefreshingly cool.5 mph50%29.97 "HgN/A
11:00 am57 °FRefreshingly cool.2 mph47%29.97 "HgN/A
10:00 am55 °FRefreshingly cool.2 mph53%29.98 "HgN/A
9:00 am54 °FCool.5 mph58%29.98 "HgN/A
8:00 am53 °FCool.2 mph60%29.98 "HgN/A
7:00 am51 °FCool.6 mph62%29.98 "HgN/A
6:00 am47 °FCool.2 mph71%29.96 "HgN/A
5:00 am49 °FCool.3 mph67%29.96 "HgN/A
4:00 am49 °FCool.2 mph67%29.95 "HgN/A
3:00 am50 °FCool.7 mph60%29.95 "HgN/A
Weather by CustomWeather, © 2017

See weather overviewHow to use our weather pages